Springfield, MO

11:09 PM CST on December 09, 2019 (GMT -0600)
Springfield-Branson Regional

Weather History for KSGF - October, 2019

Change the Weather History Date:

Monday, October 14, 2019

  Actual Average Record
Temperature  
Mean Temperature 58 °F 58 °F  
Max Temperature 74 °F 70 °F 89 °F (1963)
Min Temperature 42 °F 47 °F 31 °F (1969)
Degree Days  
Heating Degree Days 7 7  
Month to date heating degree days 88 84  
Since 1 July heating degree days 88 139  
Cooling Degree Days 0 1  
Month to date cooling degree days 37 20  
Year to date cooling degree days 1687 1379  
Growing Degree Days 8 (Base 50)    
Moisture  
Dew Point 43 °F    
Average Humidity 61    
Maximum Humidity 89    
Minimum Humidity 33    
Precipitation  
Precipitation 0.00 in 0.10 in 2.22 in (1920)
Month to date precipitation 4.04 1.61  
Year to date precipitation 45.73 36.33  
Snow  
Snow 0.00 in - - ()
Month to date snowfall 0.0  
Since 1 July snowfall 0.0  
Since 1 September snowfall 0.0  
Snow Depth 0.00 in    
Sea Level Pressure  
Sea Level Pressure 30.01 in    
Wind  
Wind Speed 7 mph (SSE)    
Max Wind Speed 17 mph    
Max Gust Speed 23 mph    
Visibility 10 miles    
Events      
T = Trace of Precipitation, MM = Missing Value Source: NWS Daily Summary

Daily Weather History Graph

Daily Weather History Graph

Search for Another Location

Airport or City:

Astronomy

Oct. 14, 2019 Rise Set
Actual Time 7:20 AM CDT 6:38 PM CDT
Civil Twilight 6:54 AM CDT 7:04 PM CDT
Nautical Twilight 6:23 AM CDT 7:34 PM CDT
Astronomical Twilight 5:53 AM CDT 8:04 PM CDT
Moon 7:28 PM CDT (10/14) 7:53 AM CDT (10/14)
Length of Visible Light 12h 10m
Length of Day
11h 17m
Full, 99% of the Moon is Illuminated
Oct 14
Full
Oct 21
Last Quarter
Oct 27
New
Nov 4
First Quarter
Nov 12
Full

Hourly Weather History & Observations

Time (CDT) Temp. Windchill Dew Point Humidity Pressure Visibility Wind Dir Wind Speed Gust Speed Precip Events Conditions
12:52 AM 43.0 °F 40.3 °F 37.9 °F 82% 30.02 in 10.0 mi South 4.6 mph - N/A   Clear
1:52 AM 45.0 °F 42.6 °F 39.0 °F 80% 30.03 in 10.0 mi South 4.6 mph - N/A   Clear
2:52 AM 42.1 °F 39.2 °F 37.9 °F 85% 30.03 in 10.0 mi South 4.6 mph - N/A   Clear
3:52 AM 43.0 °F 40.3 °F 37.9 °F 82% 30.03 in 10.0 mi SSE 4.6 mph - N/A   Clear
4:52 AM 43.0 °F 41.3 °F 37.9 °F 82% 30.03 in 10.0 mi ESE 3.5 mph - N/A   Clear
5:52 AM 43.0 °F 40.3 °F 37.9 °F 82% 30.05 in 10.0 mi South 4.6 mph - N/A   Clear
6:52 AM 43.0 °F 40.3 °F 39.0 °F 86% 30.07 in 10.0 mi SSE 4.6 mph - N/A   Clear
7:52 AM 45.0 °F 41.2 °F 39.9 °F 82% 30.09 in 10.0 mi SSE 6.9 mph - N/A   Clear
8:52 AM 51.1 °F - 43.0 °F 74% 30.09 in 10.0 mi SSE 6.9 mph - N/A   Clear
9:52 AM 57.9 °F - 45.0 °F 62% 30.08 in 10.0 mi South 5.8 mph - N/A   Clear
10:52 AM 64.9 °F - 44.1 °F 47% 30.08 in 10.0 mi South 8.1 mph - N/A   Clear
11:52 AM 68.0 °F - 44.1 °F 42% 30.06 in 10.0 mi SSE 8.1 mph - N/A   Clear
1:52 PM 72.0 °F - 42.1 °F 34% 30.00 in 10.0 mi SSE 11.5 mph - N/A   Clear
2:52 PM 73.0 °F - 42.1 °F 33% 29.97 in 10.0 mi SSE 12.7 mph - N/A   Clear
3:52 PM 73.9 °F - 44.1 °F 34% 29.96 in 10.0 mi South 12.7 mph - N/A   Clear
4:52 PM 73.0 °F - 46.0 °F 38% 29.95 in 10.0 mi SSE 15.0 mph - N/A   Clear
5:52 PM 70.0 °F - 46.9 °F 44% 29.95 in 10.0 mi SSE 10.4 mph - N/A   Clear
6:52 PM 64.9 °F - 46.9 °F 52% 29.94 in 10.0 mi SSE 9.2 mph - N/A   Clear
7:52 PM 64.0 °F - 46.9 °F 54% 29.94 in 10.0 mi SSE 12.7 mph - N/A   Clear
8:52 PM 63.0 °F - 46.0 °F 54% 29.94 in 10.0 mi SSE 15.0 mph - N/A   Clear
9:52 PM 62.1 °F - 46.9 °F 58% 29.94 in 10.0 mi SSE 17.3 mph 26.5 mph N/A   Clear
10:52 PM 60.1 °F - 48.0 °F 64% 29.94 in 10.0 mi SSE 15.0 mph - N/A   Clear
11:52 PM 59.0 °F - 48.0 °F 67% 29.93 in 10.0 mi SSE 16.1 mph - N/A   Clear